Location: Stony Brook
(40.9257°N, 73.1409°W)
Time: 05:09:20
(UTC+00:00)

Daily predictions for brighter satellites

Satellite Brightness Start Highest point End
(mag) Time Altitude Azimuth Time Altitude Azimuth Time Altitude Azimuth
ISS -0.6 00:01:41 10° NW 00:02:04 13° NW 00:02:04 13° NW
Cosmos 2266 Rocket 4.2 00:00:20 10° NNW 00:06:42 72° W 00:13:04 10° S
SL-16 R/B 3.5 00:02:25 10° NNW 00:05:05 28° N 00:05:05 28° N
Cosmos 2082 Rocket 4.1 00:04:04 10° WSW 00:08:41 25° NW 00:11:59 15° N
ATLAS 5 CENTAUR R/B 4.4 00:06:57 10° NW 00:08:17 16° NNW 00:08:17 16° NNW
CZ-2C R/B 4.1 00:19:04 10° SW 00:19:38 13° SW 00:19:38 13° SW
Cosmos 2369 Rocket 4.5 08:23:52 16° SE 08:25:51 19° E 08:29:42 10° NE
CENTAUR R/B 3.5 08:51:33 38° NNE 08:51:33 38° NNE 08:55:44 10° NE
Cosmos 1943 Rocket 4.0 08:53:41 23° NNE 08:53:41 23° NNE 08:55:45 10° NNE
NOSS 3-2 (C) 3.8 09:13:26 50° NNE 09:13:26 50° NNE 09:18:05 10° NNE
Cosmos 2344 3.8 09:14:06 48° NNW 09:14:06 48° NNW 09:20:22 10° NNE
Cosmos 1812 4.4 09:28:44 30° ENE 09:29:11 31° ENE 09:32:36 10° SE
Tsikada Rocket 3.8 09:26:44 10° S 09:32:55 80° W 09:39:14 10° N
Meteor 2-3 Rocket 3.9 09:40:23 54° NNW 09:40:23 54° NNW 09:44:57 10° N
USA 238 DEB 3.7 09:40:07 51° NW 09:40:07 51° NW 09:46:31 10° NNE
USA 238 3.7 09:40:11 52° NW 09:40:11 52° NW 09:46:37 10° NNE
BREEZE-M DEB (TANK) 3.1 09:43:04 65° NW 09:43:49 84° NNE 09:57:12 10° ESE
USA 215 4.0 09:41:07 10° E 09:47:15 46° NNE 09:50:34 26° NNW
Cosmos 1241 Rocket 4.3 09:49:45 53° WNW 09:51:04 66° WSW 09:57:11 10° SSE
Meteor 1-31 Rocket 3.7 09:48:27 10° NNE 09:52:15 49° E 09:56:02 10° S
Cosmos 921 Rocket 3.0 09:53:48 65° NNW 09:54:27 88° E 09:58:56 10° SSE
Cosmos 1782 4.0 09:57:34 30° SSW 09:57:34 30° SSW 09:59:41 10° S
Cosmos 2263 4.2 09:52:38 10° SSW 09:58:18 85° ESE 10:04:05 10° NNE
Meteor 1-26 Rocket 4.2 09:56:03 30° NNW 09:58:56 64° W 10:04:34 10° S
H-2A R/B 2.5 09:56:19 10° NNE 10:00:04 89° ESE 10:03:50 10° SSW
Cosmos 1862 3.5 09:58:19 10° S 10:02:14 70° E 10:06:10 10° NNE
Cosmos 2208 Rocket 4.3 10:02:49 44° WSW 10:02:49 44° WSW 10:07:47 10° S
Cosmos 1867 4.1 10:03:11 39° WSW 10:03:11 39° WSW 10:08:01 10° S
Gbstr 26 Del rocket 4.3 10:04:20 25° SSW 10:04:20 25° SSW 10:07:02 10° SSE
Okean 3 Rocket 3.9 09:59:52 10° S 10:04:21 69° E 10:08:54 10° NNE
Cosmos 1503 Rocket 4.2 10:03:09 10° S 10:08:23 73° ESE 10:13:42 10° NNE
Cosmos 1151 Rocket 3.0 10:05:51 20° N 10:08:52 86° E 10:13:14 10° S
Cosmos 2369 Rocket 2.1 10:05:54 23° SW 10:09:21 57° WNW 10:14:53 10° NNE
SL-19 R/B 4.2 10:06:22 10° S 10:11:56 65° WSW 10:16:13 17° NNW
Cosmos 1766 Rocket 3.4 10:09:06 10° S 10:13:25 83° W 10:17:47 10° N
SJ-12 3.8 10:09:38 10° N 10:13:45 63° WNW 10:17:49 10° SSW
Meteor 2-13 Rocket 4.4 10:08:00 10° SSW 10:13:58 56° W 10:19:58 10° N
Cosmos 1486 Rocket 4.0 10:10:35 10° SW 10:15:47 56° WNW 10:21:00 10° N
BREEZE M DEB (TANK) 4.2 10:21:35 22° NNW 10:21:35 22° NNW 10:23:46 10° NE
Cosmos 1328 Rocket 3.4 10:20:57 10° N 10:25:22 89° W 10:29:42 10° S
Cosmos 1656 Rocket 3.6 10:20:29 10° SW 10:25:46 57° WNW 10:31:09 10° NNE
Iridium 2 4.0 10:22:41 10° SSW 10:26:16 42° W 10:26:47 39° WNW
CZ-4B R/B 4.2 10:24:41 10° NNE 10:28:02 37° E 10:31:24 10° SSE
DNEPR-1 R/B 4.0 10:27:07 21° NNW 10:30:34 88° ENE 10:36:30 10° SSE
COSMO-SKYMED 1 2.7 10:27:58 10° S 10:32:11 52° W 10:35:30 16° NNW
CZ-2C R/B 2.7 10:28:14 10° S 10:33:37 57° W 10:38:57 10° NNW
Cosmos 1943 Rocket 3.6 10:35:16 18° NW 10:35:16 18° NW 10:38:16 10° N
Envisat 3.4 10:35:24 10° N 10:40:08 40° WNW 10:44:51 10° SW
CENTAUR R/B 3.7 10:38:46 20° NW 10:40:42 22° NNW 10:46:11 10° NNE
Cosmos 2098 Rocket 3.8 10:42:15 10° SW 10:45:40 29° WNW 10:49:51 10° NNW
Cosmos 1408 Rocket 3.4 10:43:20 10° SSW 10:47:38 76° W 10:51:57 10° N
DELTA 2 R/B (1) 3.7 10:47:14 15° WSW 10:51:55 76° S 10:57:28 10° E
Cosmos 1340 Rocket 3.3 10:49:09 10° S 10:53:02 63° E 10:56:59 10° NNE
NOAA 12 4.4 10:48:09 10° NNE 10:53:26 74° ESE 10:58:39 10° S
Cosmos 2279 Rocket 4.2 10:48:33 10° NNW 10:54:25 46° W 11:00:16 10° SSW
Cosmos 1174 3.4 10:52:23 10° SSW 10:55:20 67° ESE 10:58:21 10° NE
Cosmos 1743 Rocket 3.9 10:51:37 10° S 10:55:57 69° E 11:00:19 10° NNE
SMAP 4.0 10:52:09 10° NNE 10:56:43 52° E 11:01:14 10° S
NOAA 11 4.2 10:55:38 10° N 11:01:02 62° WNW 11:06:26 10° SSW
Nadezhda 4 Rocket 3.9 10:55:41 10° SSW 11:01:49 76° W 11:08:04 10° N
Meteor 1-27 Rocket 3.8 10:57:18 10° N 11:02:58 89° W 11:08:45 10° S
CZ-4B R/B 3.3 11:00:06 10° SE 11:03:03 30° ENE 11:05:59 10° N
DMSP B5D1-3 4.5 10:58:49 10° S 11:03:57 77° WSW 11:09:08 10° NNW
Cosmos 1812 4.3 11:03:50 15° WNW 11:04:37 16° W 11:07:02 10° SW
Meteor 2-15 Rocket 4.4 10:59:30 10° N 11:05:35 76° W 11:11:37 10° S
Cosmos 1515 Rocket 3.6 11:02:52 10° NNW 11:07:09 57° W 11:11:23 10° S
Cosmos 1939 Rocket 2.8 11:03:39 10° NNE 11:07:35 86° E 11:11:27 10° SSW
ATLAS 3B R/B 2.8 11:01:36 10° SSW 11:08:04 79° ESE 11:14:52 10° NE
Cosmos 1354 Rocket 4.4 11:04:27 10° SW 11:09:23 39° WNW 11:14:21 10° N
SJ 16-02 1.2 11:05:51 10° SSW 11:10:13 72° WNW 11:14:36 10° NNE
Meteor PRIRODA 3.8 11:08:04 10° N 11:11:32 45° WNW 11:15:00 10° SSW
ADEOS 4.0 11:09:26 10° N 11:14:18 40° WNW 11:19:08 10° SW
Cosmos 1515 4.1 11:10:40 10° N 11:14:27 64° E 11:18:12 10° SSE
Cosmos 1092 Rocket 4.2 11:11:12 10° S 11:17:26 84° E 11:23:46 10° N
CZ-4C R/B 4.3 11:17:18 10° SW 11:19:35 18° W 11:21:52 10° NW
ATLAS 5 CENTAUR R/B 1.3 11:18:27 10° SW 11:22:10 56° NW 11:26:19 10° NNE
SL-8 R/B 3.7 11:17:48 10° WNW 11:22:35 81° SSW 11:27:20 10° SE
Cosmos 1500 Rocket 3.7 11:20:03 10° SSW 11:24:24 53° W 11:28:48 10° N
SL-4 R/B 4.1 11:22:59 10° SSW 11:26:01 27° SE 11:29:14 10° ENE
CZ-2C R/B 3.3 11:22:26 10° N 11:27:01 43° WNW 11:31:50 10° SW
Geosat FO 4.4 11:25:01 10° SSE 11:28:19 71° WSW 11:31:38 10° NNW
Okean 1 4.2 11:25:26 10° N 11:29:18 51° E 11:33:09 10° SSE
USA 215 3.5 11:23:43 10° SSE 11:30:08 59° SW 11:36:34 10° NW
Meteor 1-25 Rocket 4.2 11:25:31 10° S 11:31:10 83° W 11:36:46 10° N
Sich 1 3.1 11:30:35 10° S 11:34:52 89° ESE 11:39:10 10° N
COSMOS 2487 2.5 11:31:41 10° NNW 11:35:03 77° ENE 11:38:23 10° SSE
Cosmos 1805 Rocket 3.5 11:31:53 10° SSW 11:36:15 69° W 11:40:37 10° N
